Voltar ao catálogo

STARLINK-11521

AtivoComunicaçõesVLEO
NORAD 62597·PAYLOAD·🇺🇸 United States

Lançado Jan 13, 2025 de Cape Canaveral Space Force Station

Loading…

Próximas Passagens (próximas 24 horas)

TLE

AtualizadoSource: CelesTrak SupGP

Época: Sep 15, 2026, 02:58 UTC

1 62597C 25008L   26258.12409722 -.00063376  00000+0 -49200-3 0  2586
2 62597  43.0010  64.1442 0001859 268.6481 293.0687 15.70881000    14

Acompanhe STARLINK-11521 em tempo real com AllMySat

Download on the App Store